Year,Month,Day,Hour,Minute,Value (Times are PST for temperature in C)
2007,07,11,00,00,20.60
2007,07,11,00,01,20.60
2007,07,11,00,02,20.70
2007,07,11,00,03,20.70
2007,07,11,00,04,20.80
2007,07,11,00,05,20.80
2007,07,11,00,06,20.80
2007,07,11,00,07,20.70
2007,07,11,00,08,20.70
2007,07,11,00,09,20.60
2007,07,11,00,10,20.50
2007,07,11,00,11,20.40
2007,07,11,00,12,20.40
2007,07,11,01,02,18.80
2007,07,11,01,03,18.80
2007,07,11,01,04,18.70
2007,07,11,01,05,18.70
2007,07,11,01,06,18.70
2007,07,11,01,07,18.70
2007,07,11,01,08,18.70
2007,07,11,01,09,18.80
2007,07,11,01,10,18.80
2007,07,11,01,11,18.80
2007,07,11,01,12,18.80
2007,07,11,01,13,18.80
2007,07,11,01,14,18.80
2007,07,11,01,15,18.80
2007,07,11,01,16,18.80
2007,07,11,01,17,18.70
2007,07,11,01,18,18.70
2007,07,11,01,19,18.70
2007,07,11,01,20,18.70
2007,07,11,01,21,18.70
2007,07,11,01,22,18.70
2007,07,11,01,23,18.60
2007,07,11,01,24,18.60
2007,07,11,01,25,18.60
2007,07,11,01,26,18.50
2007,07,11,01,27,18.50
2007,07,11,01,28,18.50
2007,07,11,01,29,18.40
2007,07,11,01,30,18.40
2007,07,11,01,31,18.40
2007,07,11,01,32,18.30
2007,07,11,01,33,18.30
2007,07,11,01,34,18.30
2007,07,11,01,35,18.30
2007,07,11,01,36,18.30
2007,07,11,01,37,18.20
2007,07,11,01,38,18.20
2007,07,11,01,39,18.20
2007,07,11,01,40,18.20
2007,07,11,01,41,18.20
2007,07,11,01,42,18.20
2007,07,11,01,43,18.10
2007,07,11,01,44,18.10
2007,07,11,01,45,18.10
2007,07,11,01,46,18.00
2007,07,11,01,47,18.00
2007,07,11,01,48,18.00
2007,07,11,01,49,17.90
2007,07,11,01,50,17.90
2007,07,11,01,51,17.80
2007,07,11,01,52,17.80
2007,07,11,01,53,17.80
2007,07,11,01,54,17.80
2007,07,11,01,55,17.80
2007,07,11,01,56,17.80
2007,07,11,01,57,17.70
2007,07,11,01,58,17.70
2007,07,11,01,59,17.70
2007,07,11,02,00,17.70
2007,07,11,02,01,17.70
2007,07,11,02,02,17.70
2007,07,11,02,03,17.70
2007,07,11,02,04,17.60
2007,07,11,02,05,17.60
2007,07,11,02,06,17.60
2007,07,11,02,07,17.60
2007,07,11,02,08,17.60
2007,07,11,02,09,17.60
2007,07,11,02,10,17.60
2007,07,11,02,11,17.60
2007,07,11,02,12,17.60
2007,07,11,02,13,17.50
2007,07,11,02,14,17.50
2007,07,11,02,15,17.50
2007,07,11,02,16,17.40
2007,07,11,02,17,17.40
2007,07,11,02,18,17.40
2007,07,11,02,19,17.40
2007,07,11,02,20,17.40
2007,07,11,02,21,17.40
2007,07,11,02,22,17.40
2007,07,11,02,23,17.40
2007,07,11,02,24,17.40
2007,07,11,02,25,17.40
2007,07,11,02,26,17.30
2007,07,11,02,27,17.30
2007,07,11,02,28,17.30
2007,07,11,02,29,17.30
2007,07,11,02,30,17.20
2007,07,11,02,31,17.20
2007,07,11,02,32,17.20
2007,07,11,02,33,17.20
2007,07,11,02,34,17.20
2007,07,11,02,35,17.10
2007,07,11,02,36,17.10
2007,07,11,02,37,17.10
2007,07,11,02,38,17.00
2007,07,11,02,39,17.00
2007,07,11,02,40,16.90
2007,07,11,02,41,16.90
2007,07,11,02,42,16.90
2007,07,11,02,43,16.80
2007,07,11,02,44,16.80
2007,07,11,02,45,16.80
2007,07,11,02,46,16.80
2007,07,11,02,47,16.80
2007,07,11,02,48,16.70
2007,07,11,02,49,16.70
2007,07,11,02,50,16.70
2007,07,11,02,51,16.70
2007,07,11,02,52,16.70
2007,07,11,02,53,16.70
2007,07,11,02,54,16.60
2007,07,11,02,55,16.60
2007,07,11,02,56,16.60
2007,07,11,02,57,16.60
2007,07,11,02,58,16.60
2007,07,11,02,59,16.50
2007,07,11,03,00,16.50
2007,07,11,03,01,16.40
2007,07,11,03,02,16.40
2007,07,11,03,03,16.40
2007,07,11,03,04,16.40
2007,07,11,03,05,16.40
2007,07,11,03,06,16.40
2007,07,11,03,07,16.40
2007,07,11,03,08,16.30
2007,07,11,03,09,16.30
2007,07,11,03,10,16.30
2007,07,11,03,11,16.30
2007,07,11,03,12,16.30
2007,07,11,03,13,16.20
2007,07,11,03,14,16.20
2007,07,11,03,15,16.20
2007,07,11,03,16,16.20
2007,07,11,03,17,16.10
2007,07,11,03,18,16.10
2007,07,11,03,19,16.10
2007,07,11,03,20,16.00
2007,07,11,03,21,16.00
2007,07,11,03,22,16.00
2007,07,11,03,23,16.00
2007,07,11,03,24,15.90
2007,07,11,03,25,15.90
2007,07,11,03,26,15.90
2007,07,11,03,27,16.00
2007,07,11,03,28,16.00
2007,07,11,03,29,15.90
2007,07,11,03,30,16.00
2007,07,11,03,31,16.00
2007,07,11,03,32,15.90
2007,07,11,03,33,15.90
2007,07,11,03,34,15.90
2007,07,11,03,35,15.90
2007,07,11,03,36,15.90
2007,07,11,03,37,15.90
2007,07,11,03,38,15.90
2007,07,11,03,39,15.80
2007,07,11,03,40,15.80
2007,07,11,03,41,15.80
2007,07,11,03,42,15.80
2007,07,11,03,43,15.80
2007,07,11,03,44,15.80
2007,07,11,03,45,15.80
2007,07,11,03,46,15.80
2007,07,11,03,47,15.80
2007,07,11,03,48,15.80
2007,07,11,03,49,15.80
2007,07,11,03,50,15.70
2007,07,11,03,51,15.70
2007,07,11,03,52,15.70
2007,07,11,03,53,15.60
2007,07,11,03,54,15.60
2007,07,11,03,55,15.60
2007,07,11,03,56,15.50
2007,07,11,03,57,15.50
2007,07,11,03,58,15.40
2007,07,11,03,59,15.40
2007,07,11,04,00,15.40
2007,07,11,04,01,15.30
2007,07,11,04,02,15.30
2007,07,11,04,03,15.30
2007,07,11,04,04,15.30
2007,07,11,04,05,15.20
2007,07,11,04,06,15.30
2007,07,11,04,07,15.30
2007,07,11,04,08,15.30
2007,07,11,04,09,15.30
2007,07,11,04,10,15.30
2007,07,11,04,11,15.30
2007,07,11,04,12,15.30
2007,07,11,04,13,15.30
2007,07,11,04,14,15.30
2007,07,11,04,15,15.30
2007,07,11,04,16,15.20
2007,07,11,04,17,15.20
2007,07,11,04,18,15.20
2007,07,11,04,19,15.20
2007,07,11,04,20,15.20
2007,07,11,04,21,15.20
2007,07,11,04,22,15.20
2007,07,11,04,23,15.20
2007,07,11,04,24,15.20
2007,07,11,04,25,15.30
2007,07,11,04,26,15.30
2007,07,11,04,27,15.30
2007,07,11,04,28,15.30
2007,07,11,04,29,15.30
2007,07,11,04,30,15.20
2007,07,11,04,31,15.20
2007,07,11,04,32,15.20
2007,07,11,04,33,15.20
2007,07,11,04,34,15.20
2007,07,11,04,35,15.20
2007,07,11,04,36,15.20
2007,07,11,04,37,15.20
2007,07,11,04,38,15.20
2007,07,11,04,39,15.20
2007,07,11,04,40,15.20
2007,07,11,04,41,15.20
2007,07,11,04,42,15.20
2007,07,11,04,43,15.20
2007,07,11,04,44,15.20
2007,07,11,04,45,15.20
2007,07,11,04,46,15.20
2007,07,11,04,47,15.20
2007,07,11,04,48,15.20
2007,07,11,04,49,15.30
2007,07,11,04,50,15.30
2007,07,11,04,51,15.30
2007,07,11,04,52,15.30
2007,07,11,04,53,15.20
2007,07,11,04,54,15.20
2007,07,11,04,55,15.20
2007,07,11,04,56,15.20
2007,07,11,04,57,15.20
2007,07,11,04,58,15.20
2007,07,11,04,59,15.20
2007,07,11,05,00,15.20
2007,07,11,05,01,15.20
2007,07,11,05,02,15.10
2007,07,11,05,03,15.10
2007,07,11,05,04,15.10
2007,07,11,05,05,15.00
2007,07,11,05,06,15.00
2007,07,11,05,07,15.00
2007,07,11,05,08,15.00
2007,07,11,05,09,15.00
2007,07,11,05,10,15.00
2007,07,11,05,11,15.00
2007,07,11,05,12,15.00
2007,07,11,05,13,15.00
2007,07,11,05,14,15.00
2007,07,11,05,15,15.00
2007,07,11,05,16,15.00
2007,07,11,05,17,15.00
2007,07,11,05,18,15.00
2007,07,11,05,19,15.00
2007,07,11,05,20,15.00
2007,07,11,05,21,15.00
2007,07,11,05,22,15.00
2007,07,11,05,23,15.00
2007,07,11,05,24,15.00
2007,07,11,05,25,15.00
2007,07,11,05,26,15.00
2007,07,11,05,27,14.90
2007,07,11,05,28,14.90
2007,07,11,05,29,14.80
2007,07,11,05,30,14.80
2007,07,11,05,31,14.80
2007,07,11,05,32,14.80
2007,07,11,05,33,14.80
2007,07,11,05,34,14.80
2007,07,11,05,35,14.70
2007,07,11,05,36,14.70
2007,07,11,05,37,14.70
2007,07,11,05,38,14.70
2007,07,11,05,39,14.70
2007,07,11,05,40,14.70
2007,07,11,05,41,14.70
2007,07,11,05,42,14.70
2007,07,11,05,43,14.70
2007,07,11,05,44,14.70
2007,07,11,05,45,14.70
2007,07,11,05,46,14.70
2007,07,11,05,47,14.70
2007,07,11,05,48,14.80
2007,07,11,05,49,14.80
2007,07,11,05,50,14.80
2007,07,11,05,51,14.80
2007,07,11,05,52,14.70
2007,07,11,05,53,14.70
2007,07,11,05,54,14.70
2007,07,11,05,55,14.80
2007,07,11,05,56,14.80
2007,07,11,05,57,14.80
2007,07,11,05,58,14.80
2007,07,11,05,59,14.80
2007,07,11,06,00,14.80
2007,07,11,06,01,14.80
2007,07,11,06,02,14.90
2007,07,11,06,03,14.90
2007,07,11,06,04,14.90
2007,07,11,06,05,15.00
2007,07,11,06,06,15.00
2007,07,11,06,07,15.00
2007,07,11,06,08,15.00
2007,07,11,06,09,15.00
2007,07,11,06,10,15.00
2007,07,11,06,11,15.00
2007,07,11,06,12,15.00
2007,07,11,06,13,15.00
2007,07,11,06,14,15.00
2007,07,11,06,15,15.00
2007,07,11,06,16,15.10
2007,07,11,06,17,15.20
2007,07,11,06,18,15.20
2007,07,11,06,19,15.30
2007,07,11,06,20,15.30
2007,07,11,06,21,15.30
2007,07,11,06,22,15.30
2007,07,11,06,23,15.30
2007,07,11,06,24,15.30
2007,07,11,06,25,15.30
2007,07,11,06,26,15.30
2007,07,11,06,27,15.30
2007,07,11,06,28,15.30
2007,07,11,06,29,15.30
2007,07,11,06,30,15.30
2007,07,11,06,31,15.30
2007,07,11,06,32,15.40
2007,07,11,06,33,15.40
2007,07,11,06,34,15.50
2007,07,11,06,35,15.50
2007,07,11,06,36,15.60
2007,07,11,06,37,15.60
2007,07,11,06,38,15.70
2007,07,11,06,39,15.70
2007,07,11,06,40,15.70
2007,07,11,06,41,15.80
2007,07,11,06,42,15.80
2007,07,11,06,43,15.80
2007,07,11,06,44,15.80
2007,07,11,06,45,15.80
2007,07,11,06,46,15.90
2007,07,11,06,47,15.90
2007,07,11,06,48,16.00
2007,07,11,06,49,16.00
2007,07,11,06,50,16.10
2007,07,11,06,51,16.10
2007,07,11,06,52,16.20
2007,07,11,06,53,16.20
2007,07,11,06,54,16.30
2007,07,11,06,55,16.30
2007,07,11,06,56,16.40
2007,07,11,06,57,16.40
2007,07,11,06,58,16.50
2007,07,11,06,59,16.60
2007,07,11,07,00,16.60
2007,07,11,07,01,16.70
2007,07,11,07,02,16.80
2007,07,11,07,03,16.90
2007,07,11,07,04,17.00
2007,07,11,07,05,17.00
2007,07,11,07,06,17.10
2007,07,11,07,07,17.20
2007,07,11,07,08,17.30
2007,07,11,07,09,17.30
2007,07,11,07,10,17.40
2007,07,11,07,11,17.50
2007,07,11,07,12,17.50
2007,07,11,07,13,17.60
2007,07,11,07,14,17.70
2007,07,11,07,15,17.80
2007,07,11,07,16,17.90
2007,07,11,07,17,18.00
2007,07,11,07,18,18.10
2007,07,11,07,19,18.30
2007,07,11,07,20,18.40
2007,07,11,07,21,18.60
2007,07,11,07,22,18.70
2007,07,11,07,23,18.80
2007,07,11,07,24,18.90
2007,07,11,07,25,19.00
2007,07,11,07,26,19.00
2007,07,11,07,27,19.10
2007,07,11,07,28,19.20
2007,07,11,07,29,19.30
2007,07,11,07,30,19.40
2007,07,11,07,31,19.50
2007,07,11,07,32,19.60
2007,07,11,07,33,19.70
2007,07,11,07,34,19.80
2007,07,11,07,35,19.90
2007,07,11,07,36,20.00
2007,07,11,07,37,20.10
2007,07,11,07,38,20.20
2007,07,11,07,39,20.30
2007,07,11,07,40,20.40
2007,07,11,07,41,20.50
2007,07,11,07,42,20.50
2007,07,11,07,43,20.60
2007,07,11,07,44,20.70
2007,07,11,07,45,20.70
2007,07,11,07,46,20.80
2007,07,11,07,47,20.90
2007,07,11,07,48,20.90
2007,07,11,07,49,21.00
2007,07,11,07,50,21.10
2007,07,11,07,51,21.20
2007,07,11,07,52,21.20
2007,07,11,07,53,21.30
2007,07,11,07,54,21.40
2007,07,11,07,55,21.50
2007,07,11,07,56,21.60
2007,07,11,07,57,21.80
2007,07,11,07,58,21.90
2007,07,11,07,59,22.00
2007,07,11,08,00,22.10
2007,07,11,08,01,22.30
2007,07,11,08,02,22.40
2007,07,11,08,03,22.50
2007,07,11,08,04,22.60
2007,07,11,08,05,22.70
2007,07,11,08,06,22.80
2007,07,11,08,07,22.90
2007,07,11,08,08,23.00
2007,07,11,08,09,23.00
2007,07,11,08,10,23.10
2007,07,11,08,11,23.00
2007,07,11,08,12,23.00
2007,07,11,08,13,23.00
2007,07,11,08,14,23.00
2007,07,11,08,15,23.10
2007,07,11,08,16,23.20
2007,07,11,08,17,23.20
2007,07,11,08,18,23.30
2007,07,11,08,19,23.30
2007,07,11,08,20,23.40
2007,07,11,08,21,23.40
2007,07,11,08,22,23.50
2007,07,11,08,23,23.50
2007,07,11,08,24,23.60
2007,07,11,08,25,23.60
2007,07,11,08,26,23.70
2007,07,11,08,27,23.70
2007,07,11,08,28,23.80
2007,07,11,08,29,23.90
2007,07,11,08,30,24.00
2007,07,11,08,31,24.00
2007,07,11,08,32,24.10
2007,07,11,08,33,24.10
2007,07,11,08,34,24.20
2007,07,11,08,35,24.20
2007,07,11,08,36,24.30
2007,07,11,08,37,24.30
2007,07,11,08,38,24.30
2007,07,11,08,39,24.40
2007,07,11,08,40,24.40
2007,07,11,08,41,24.40
2007,07,11,08,42,24.50
2007,07,11,08,43,24.50
2007,07,11,08,44,24.60
2007,07,11,08,45,24.60
2007,07,11,08,46,24.60
2007,07,11,08,47,24.70
2007,07,11,08,48,24.70
2007,07,11,08,49,24.70
2007,07,11,08,50,24.70
2007,07,11,08,51,24.80
2007,07,11,08,52,24.80
2007,07,11,08,53,24.80
2007,07,11,08,54,24.90
2007,07,11,08,55,24.90
2007,07,11,08,56,24.90
2007,07,11,08,57,25.00
2007,07,11,08,58,25.10
2007,07,11,08,59,25.10
2007,07,11,09,00,25.10
2007,07,11,09,01,25.20
2007,07,11,09,02,25.30
2007,07,11,09,03,25.40
2007,07,11,09,04,25.50
2007,07,11,09,05,25.60
2007,07,11,09,06,25.60
2007,07,11,09,07,25.70
2007,07,11,09,08,25.70
2007,07,11,09,09,25.70
2007,07,11,09,10,25.70
2007,07,11,09,11,25.80
2007,07,11,09,12,25.80
2007,07,11,09,13,25.90
2007,07,11,09,14,25.90
2007,07,11,09,15,25.90
2007,07,11,09,16,26.00
2007,07,11,09,17,26.10
2007,07,11,09,18,26.20
2007,07,11,09,19,26.30
2007,07,11,09,20,26.40
2007,07,11,09,21,26.50
2007,07,11,09,22,26.70
2007,07,11,09,23,26.80
2007,07,11,09,24,27.00
2007,07,11,09,25,27.10
2007,07,11,09,26,27.30
2007,07,11,09,27,27.40
2007,07,11,09,28,27.50
2007,07,11,09,29,27.50
2007,07,11,09,30,27.60
2007,07,11,09,31,27.70
2007,07,11,09,32,27.70
2007,07,11,09,33,27.80
2007,07,11,09,34,27.80
2007,07,11,09,35,27.90
2007,07,11,09,36,28.00
2007,07,11,09,37,28.20
2007,07,11,09,38,28.30
2007,07,11,09,39,28.50
2007,07,11,09,40,28.80
2007,07,11,09,41,29.00
2007,07,11,09,42,29.20
2007,07,11,09,43,29.40
2007,07,11,09,44,29.60
2007,07,11,09,45,29.90
2007,07,11,09,46,30.10
2007,07,11,09,47,30.30
2007,07,11,09,48,30.50
2007,07,11,09,49,30.60
2007,07,11,09,50,30.70
2007,07,11,09,51,30.70
2007,07,11,09,52,30.70
2007,07,11,09,53,30.70
2007,07,11,09,54,30.80
2007,07,11,09,55,30.90
2007,07,11,09,56,30.90
2007,07,11,09,57,31.00
2007,07,11,09,58,31.00
2007,07,11,09,59,31.00
2007,07,11,10,00,31.10
2007,07,11,10,01,31.10
2007,07,11,10,02,31.10
2007,07,11,10,03,31.20
2007,07,11,10,04,31.20
2007,07,11,10,05,31.30
2007,07,11,10,06,31.30
2007,07,11,10,07,31.30
2007,07,11,10,08,31.30
2007,07,11,10,09,31.40
2007,07,11,10,10,31.30
2007,07,11,10,11,31.40
2007,07,11,10,12,31.40
2007,07,11,10,13,31.40
2007,07,11,10,14,31.50
2007,07,11,10,15,31.50
2007,07,11,10,16,31.60
2007,07,11,10,17,31.60
2007,07,11,10,18,31.60
2007,07,11,10,19,31.60
2007,07,11,10,20,31.50
2007,07,11,10,21,31.50
2007,07,11,10,22,31.60
2007,07,11,10,23,31.60
2007,07,11,10,24,31.60
2007,07,11,10,25,31.60
2007,07,11,10,26,31.60
2007,07,11,10,27,31.60
2007,07,11,10,28,31.60
2007,07,11,10,29,31.60
2007,07,11,10,30,31.60
2007,07,11,10,31,31.60
2007,07,11,10,32,31.60
2007,07,11,10,33,31.70
2007,07,11,10,34,31.70
2007,07,11,10,35,31.70
2007,07,11,10,36,31.80
2007,07,11,10,37,31.80
2007,07,11,10,38,31.80
2007,07,11,10,39,31.80
2007,07,11,10,40,31.90
2007,07,11,10,41,32.00
2007,07,11,10,42,32.00
2007,07,11,10,43,32.10
2007,07,11,10,44,32.10
2007,07,11,10,45,32.00
2007,07,11,10,46,32.00
2007,07,11,10,47,32.00
2007,07,11,10,48,32.10
2007,07,11,10,49,32.20
2007,07,11,10,50,32.30
2007,07,11,10,51,32.30
2007,07,11,10,52,32.30
2007,07,11,10,53,32.40
2007,07,11,10,54,32.40
2007,07,11,10,55,32.40
2007,07,11,10,56,32.40
2007,07,11,10,57,32.30
2007,07,11,10,58,32.40
2007,07,11,10,59,32.50
2007,07,11,11,00,32.60
2007,07,11,11,01,32.60
2007,07,11,11,02,32.60
2007,07,11,11,03,32.60
2007,07,11,11,04,32.60
2007,07,11,11,05,32.70
2007,07,11,11,06,32.70
2007,07,11,11,07,32.80
2007,07,11,11,08,32.70
2007,07,11,11,09,32.70
2007,07,11,11,10,32.80
2007,07,11,11,11,32.80
2007,07,11,11,12,32.80
2007,07,11,11,13,32.80
2007,07,11,11,14,32.90
2007,07,11,11,15,33.00
2007,07,11,11,16,33.10
2007,07,11,11,17,33.10
2007,07,11,11,18,33.10
2007,07,11,11,19,33.10
2007,07,11,11,20,33.10
2007,07,11,11,21,33.20
2007,07,11,11,22,33.20
2007,07,11,11,23,33.20
2007,07,11,11,24,33.20
2007,07,11,11,25,33.20
2007,07,11,11,26,33.10
2007,07,11,11,27,33.10
2007,07,11,11,28,33.00
2007,07,11,11,29,33.00
2007,07,11,11,30,33.00
2007,07,11,11,31,33.00
2007,07,11,11,32,33.00
2007,07,11,11,33,33.10
2007,07,11,11,34,33.10
2007,07,11,11,35,33.10
2007,07,11,11,36,33.10
2007,07,11,11,37,33.10
2007,07,11,11,38,33.10
2007,07,11,11,39,33.00
2007,07,11,11,40,33.00
2007,07,11,11,41,33.00
2007,07,11,11,42,33.00
2007,07,11,11,43,33.00
2007,07,11,11,44,33.00
2007,07,11,11,45,33.00
2007,07,11,11,46,33.00
2007,07,11,11,47,33.00
2007,07,11,11,48,33.00
2007,07,11,11,49,33.10
2007,07,11,11,50,33.00
2007,07,11,11,51,33.00
2007,07,11,11,52,33.10
2007,07,11,11,53,33.20
2007,07,11,11,54,33.30
2007,07,11,11,55,33.30
2007,07,11,11,56,33.30
2007,07,11,11,57,33.40
2007,07,11,11,58,33.40
2007,07,11,11,59,33.40
2007,07,11,12,00,33.50
2007,07,11,12,01,33.40
2007,07,11,12,02,33.50
2007,07,11,12,03,33.50
2007,07,11,12,04,33.40
2007,07,11,12,05,33.40
2007,07,11,12,06,33.40
2007,07,11,12,07,33.40
2007,07,11,12,08,33.30
2007,07,11,12,09,33.30
2007,07,11,12,10,33.30
2007,07,11,12,11,33.30
2007,07,11,12,12,33.40
2007,07,11,12,13,33.40
2007,07,11,12,14,33.40
2007,07,11,12,15,33.40
2007,07,11,12,16,33.30
2007,07,11,12,17,33.30
2007,07,11,12,18,33.30
2007,07,11,12,19,33.30
2007,07,11,12,20,33.20
2007,07,11,12,21,33.30
2007,07,11,12,22,33.30
2007,07,11,12,23,33.40
2007,07,11,12,24,33.40
2007,07,11,12,25,33.40
2007,07,11,12,26,33.40
2007,07,11,12,27,33.40
2007,07,11,12,28,33.20
2007,07,11,12,29,33.10
2007,07,11,12,30,33.00
2007,07,11,12,31,33.00
2007,07,11,12,32,33.00
2007,07,11,12,33,33.00
2007,07,11,12,34,33.10
2007,07,11,12,35,33.20
2007,07,11,12,36,33.30
2007,07,11,12,37,33.40
2007,07,11,12,38,33.50
2007,07,11,12,39,33.60
2007,07,11,12,40,33.60
2007,07,11,12,41,33.70
2007,07,11,12,42,33.70
2007,07,11,12,43,33.70
2007,07,11,12,44,33.70
2007,07,11,12,45,33.60
2007,07,11,12,46,33.60
2007,07,11,12,47,33.60
2007,07,11,12,48,33.60
2007,07,11,12,49,33.60
2007,07,11,12,50,33.60
2007,07,11,12,51,33.70
2007,07,11,12,52,33.80
2007,07,11,12,53,33.80
2007,07,11,12,54,33.80
2007,07,11,12,55,33.80
2007,07,11,12,56,33.80
2007,07,11,12,57,33.80
2007,07,11,12,58,33.90
2007,07,11,12,59,33.90
2007,07,11,13,00,34.00
2007,07,11,13,01,34.10
2007,07,11,13,02,34.20
2007,07,11,13,03,34.30
2007,07,11,13,04,34.30
2007,07,11,13,05,34.20
2007,07,11,13,06,34.10
2007,07,11,13,07,34.00
2007,07,11,13,08,34.00
2007,07,11,13,09,33.90
2007,07,11,13,10,33.90
2007,07,11,13,11,33.90
2007,07,11,13,12,34.00
2007,07,11,13,13,34.00
2007,07,11,13,14,34.10
2007,07,11,13,15,34.10
2007,07,11,13,16,34.10
2007,07,11,13,17,34.20
2007,07,11,13,18,34.30
2007,07,11,13,19,34.40
2007,07,11,13,20,34.30
2007,07,11,13,21,34.20
2007,07,11,13,22,34.20
2007,07,11,13,23,34.10
2007,07,11,13,24,34.00
2007,07,11,13,25,34.00
2007,07,11,13,26,34.00
2007,07,11,13,27,34.10
2007,07,11,13,28,34.10
2007,07,11,13,29,34.20
2007,07,11,13,30,34.20
2007,07,11,13,31,34.20
2007,07,11,13,32,34.20
2007,07,11,13,33,34.20
2007,07,11,13,34,34.10
2007,07,11,13,35,34.10
2007,07,11,13,36,34.10
2007,07,11,13,37,34.20
2007,07,11,13,38,34.20
2007,07,11,13,39,34.30
2007,07,11,13,40,34.30
2007,07,11,13,41,34.40
2007,07,11,13,42,34.50
2007,07,11,13,43,34.60
2007,07,11,13,44,34.60
2007,07,11,13,45,34.60
2007,07,11,13,46,34.60
2007,07,11,13,47,34.60
2007,07,11,13,48,34.60
2007,07,11,13,49,34.60
2007,07,11,13,50,34.60
2007,07,11,13,51,34.70
2007,07,11,13,52,34.80
2007,07,11,13,53,34.90
2007,07,11,13,54,35.00
2007,07,11,13,55,35.10
2007,07,11,13,56,35.10
2007,07,11,13,57,35.10
2007,07,11,13,58,35.20
2007,07,11,13,59,35.10
2007,07,11,14,00,35.00
2007,07,11,14,01,34.90
2007,07,11,14,02,34.90
2007,07,11,14,03,34.90
2007,07,11,14,04,34.90
2007,07,11,14,05,35.00
2007,07,11,14,06,35.10
2007,07,11,14,07,35.10
2007,07,11,14,08,35.10
2007,07,11,14,09,35.10
2007,07,11,14,10,35.10
2007,07,11,14,11,35.20
2007,07,11,14,12,35.20
2007,07,11,14,13,35.30
2007,07,11,14,14,35.30
2007,07,11,14,15,35.30
2007,07,11,14,16,35.30
2007,07,11,14,17,35.20
2007,07,11,14,18,35.20
2007,07,11,14,19,35.30
2007,07,11,14,20,35.40
2007,07,11,14,21,35.50
2007,07,11,14,22,35.50
2007,07,11,14,23,35.40
2007,07,11,14,24,35.40
2007,07,11,14,25,35.30
2007,07,11,14,26,35.20
2007,07,11,14,27,35.20
2007,07,11,14,28,35.10
2007,07,11,14,29,35.10
2007,07,11,14,30,35.10
2007,07,11,14,31,35.00
2007,07,11,14,32,35.00
2007,07,11,14,33,34.90
2007,07,11,14,34,34.90
2007,07,11,14,35,34.90
2007,07,11,14,36,35.00
2007,07,11,14,37,35.10
2007,07,11,14,38,35.20
2007,07,11,14,39,35.10
2007,07,11,14,40,35.00
2007,07,11,14,41,34.90
2007,07,11,14,42,34.80
2007,07,11,14,43,34.80
2007,07,11,14,44,34.80
2007,07,11,14,45,34.80
2007,07,11,14,46,34.80
2007,07,11,14,47,34.80
2007,07,11,14,48,34.80
2007,07,11,14,49,34.80
2007,07,11,14,50,34.90
2007,07,11,14,51,34.90
2007,07,11,14,52,35.00
2007,07,11,14,53,35.10
2007,07,11,14,54,35.10
2007,07,11,14,55,35.10
2007,07,11,14,56,35.20
2007,07,11,14,57,35.30
2007,07,11,14,58,35.30
2007,07,11,14,59,35.30
2007,07,11,15,00,35.30
2007,07,11,15,01,35.40
2007,07,11,15,02,35.40
2007,07,11,15,03,35.50
2007,07,11,15,04,35.50
2007,07,11,15,05,35.60
2007,07,11,15,06,35.60
2007,07,11,15,07,35.60
2007,07,11,15,08,35.50
2007,07,11,15,09,35.60
2007,07,11,15,10,35.50
2007,07,11,15,11,35.50
2007,07,11,15,12,35.60
2007,07,11,15,13,35.60
2007,07,11,15,14,35.60
2007,07,11,15,15,35.60
2007,07,11,15,16,35.60
2007,07,11,15,17,35.60
2007,07,11,15,18,35.50
2007,07,11,15,19,35.50
2007,07,11,15,20,35.50
2007,07,11,15,21,35.40
2007,07,11,15,22,35.30
2007,07,11,15,23,35.30
2007,07,11,15,24,35.30
2007,07,11,15,25,35.30
2007,07,11,15,26,35.30
2007,07,11,15,27,35.20
2007,07,11,15,28,35.30
2007,07,11,15,29,35.30
2007,07,11,15,30,35.30
2007,07,11,15,31,35.40
2007,07,11,15,32,35.40
2007,07,11,15,33,35.50
2007,07,11,15,34,35.60
2007,07,11,15,35,35.60
2007,07,11,15,36,35.60
2007,07,11,15,37,35.70
2007,07,11,15,38,35.80
2007,07,11,15,39,35.80
2007,07,11,15,40,35.90
2007,07,11,15,41,35.90
2007,07,11,15,42,35.90
2007,07,11,15,43,35.90
2007,07,11,15,44,35.90
2007,07,11,15,45,35.80
2007,07,11,15,46,35.70
2007,07,11,15,47,35.70
2007,07,11,15,48,35.80
2007,07,11,15,49,35.80
2007,07,11,15,50,35.80
2007,07,11,15,51,35.80
2007,07,11,15,52,35.70
2007,07,11,15,53,35.70
2007,07,11,15,54,35.70
2007,07,11,15,55,35.70
2007,07,11,15,56,35.70
2007,07,11,15,57,35.70
2007,07,11,15,58,35.80
2007,07,11,15,59,35.80
2007,07,11,16,00,35.90
2007,07,11,16,01,36.00
2007,07,11,16,02,36.10
2007,07,11,16,03,36.20
2007,07,11,16,04,36.20
2007,07,11,16,05,36.20
2007,07,11,16,06,36.20
2007,07,11,16,07,36.20
2007,07,11,16,08,36.20
2007,07,11,16,09,36.20
2007,07,11,16,10,36.20
2007,07,11,16,11,36.30
2007,07,11,16,12,36.30
2007,07,11,16,13,36.30
2007,07,11,16,14,36.30
2007,07,11,16,15,36.30
2007,07,11,16,16,36.30
2007,07,11,16,17,36.20
2007,07,11,16,18,36.20
2007,07,11,16,19,36.20
2007,07,11,16,20,36.30
2007,07,11,16,21,36.30
2007,07,11,16,22,36.30
2007,07,11,16,23,36.30
2007,07,11,16,24,36.40
2007,07,11,16,25,36.60
2007,07,11,16,26,36.70
2007,07,11,16,27,36.80
2007,07,11,16,28,36.80
2007,07,11,16,29,36.80
2007,07,11,16,30,36.80
2007,07,11,16,31,36.80
2007,07,11,16,32,36.80
2007,07,11,16,33,36.80
2007,07,11,16,34,36.80
2007,07,11,16,35,36.80
2007,07,11,16,36,36.70
2007,07,11,16,37,36.70
2007,07,11,16,38,36.70
2007,07,11,16,39,36.80
2007,07,11,16,40,36.90
2007,07,11,16,41,36.90
2007,07,11,16,42,37.00
2007,07,11,16,43,37.00
2007,07,11,16,44,37.00
2007,07,11,16,45,37.00
2007,07,11,16,46,36.90
2007,07,11,16,47,36.90
2007,07,11,16,48,37.00
2007,07,11,16,49,37.10
2007,07,11,16,50,37.10
2007,07,11,16,51,37.10
2007,07,11,16,52,37.00
2007,07,11,16,53,36.90
2007,07,11,16,54,36.70
2007,07,11,16,55,36.60
2007,07,11,16,56,36.40
2007,07,11,16,57,35.80
2007,07,11,16,58,35.20
2007,07,11,16,59,34.60
2007,07,11,17,00,34.30
2007,07,11,17,01,34.10
2007,07,11,17,02,34.00
2007,07,11,17,03,33.80
2007,07,11,17,04,33.60
2007,07,11,17,05,33.40
2007,07,11,17,06,33.20
2007,07,11,17,07,33.20
2007,07,11,17,08,33.20
2007,07,11,17,09,33.20
2007,07,11,17,10,33.20
2007,07,11,17,11,33.00
2007,07,11,17,12,32.90
2007,07,11,17,13,32.90
2007,07,11,17,14,32.80
2007,07,11,17,15,32.70
2007,07,11,17,16,32.70
2007,07,11,17,17,32.70
2007,07,11,17,18,32.80
2007,07,11,17,19,32.80
2007,07,11,17,20,32.80
2007,07,11,17,21,32.80
2007,07,11,17,22,32.70
2007,07,11,17,23,32.70
2007,07,11,17,24,32.70
2007,07,11,17,25,32.60
2007,07,11,17,26,32.60
2007,07,11,17,27,32.60
2007,07,11,17,28,32.60
2007,07,11,17,29,32.60
2007,07,11,17,30,32.60
2007,07,11,17,31,32.60
2007,07,11,17,32,32.70
2007,07,11,17,33,32.80
2007,07,11,17,34,32.90
2007,07,11,17,35,33.00
2007,07,11,17,36,33.00
2007,07,11,17,37,32.90
2007,07,11,17,38,32.90
2007,07,11,17,39,32.80
2007,07,11,17,40,32.80
2007,07,11,17,41,32.90
2007,07,11,17,42,32.90
2007,07,11,17,43,33.00
2007,07,11,17,44,33.10
2007,07,11,17,45,33.20
2007,07,11,17,46,33.30
2007,07,11,17,47,33.30
2007,07,11,17,48,33.30
2007,07,11,17,49,33.20
2007,07,11,17,50,33.20
2007,07,11,17,51,33.30
2007,07,11,17,52,33.40
2007,07,11,17,53,33.30
2007,07,11,17,54,33.30
2007,07,11,17,55,33.30
2007,07,11,17,56,33.20
2007,07,11,17,57,33.10
2007,07,11,17,58,33.10
2007,07,11,17,59,33.00
2007,07,11,18,00,32.90
2007,07,11,18,01,32.90
2007,07,11,18,02,32.90
2007,07,11,18,03,32.90
2007,07,11,18,04,32.90
2007,07,11,18,05,33.00
2007,07,11,18,06,33.10
2007,07,11,18,07,33.20
2007,07,11,18,08,33.20